Regional Weather Roundup
Issued by NWS Jackson, KY

Home | Current Version | Previous Version | Graphics & Text | Print | Product List | Glossary On
Versions: 1 2 3 4 5 6 7 8 9 10 11 12 13 14 15 16 17 18 19 20 21 22 23 24 25 26 27 28 29 30 31 32 33 34 35 36 37 38 39 40 41 42 43 44 45 46 47 48 49 50
000
ASUS43 KJKL 240010
RWRJKL

EAST KENTUCKY HOURLY WEATHER ROUNDUP
NATIONAL WEATHER SERVICE JACKSON KY
800 PM EDT TUE SEP 23 2014

NOTE: "FAIR" INDICATES FEW OR NO CLOUDS BELOW 12,000 FEET WITH
NO SIGNIFICANT WEATHER AND/OR OBSTRUCTIONS TO VISIBILITY.

* THESE REPORTS ARE NOT UNDER NWS QUALITY CONTROL AND MAY NOT
  REPORT WEATHER SUCH AS PRECIPITATION AND FOG.

KYZ079-080-083-085-087-088-110-112-115-119-120-240100
...EASTERN KENTUCKY...

CITY           SKY/WX    TMP DP  RH WIND       PRES   REMARKS
JACKSON        CLEAR     61  49  64 CALM      30.28S
6HR MIN TEMP:  61; 6HR MAX TEMP:  71;

LONDON         CLEAR     64  50  60 NE6       30.27S
6HR MIN TEMP:  64; 6HR MAX TEMP:  74;

SOMERSET*      CLEAR     63  48  59 NE5       30.27R
MONTICELLO*    CLEAR     59  52  77 CALM      30.26S
6HR MIN TEMP:  59; 6HR MAX TEMP:  75;

MIDDLESBORO*   CLEAR     62  55  78 W3        30.25R
6HR MIN TEMP:  62; 6HR MAX TEMP:  75;

HARLAN APT*    PTCLDY    63  52  67 E3        30.26S
BLACK MTN*       N/A     54  52  94 N3          N/A
PIKEVILLE APT* CLEAR     61  52  72 N7        30.28S
BIG SANDY*     CLEAR     58  53  82 NE7       30.29S
6HR MIN TEMP:  58; 6HR MAX TEMP:  70;

MOREHEAD APT*  CLEAR     64  45  48 CALM      30.31S
$$

KYZ035-036-041-042-044-050-067-078-099-240100
...CENTRAL KENTUCKY...

CITY           SKY/WX    TMP DP  RH WIND       PRES   REMARKS
MT STERLING*   CLEAR     63  46  55 SE6       30.30S
FLEMING/MASON* CLEAR     63  43  48 E5        30.30R
DANVILLE*      CLEAR     61  46  59 NE3       30.27S
RICHMOND*      CLEAR     63  48  59 NE3       30.27S
LEXINGTON      CLEAR     63  45  51 NE7       30.28R
6HR MIN TEMP:  63; 6HR MAX TEMP:  74;

FRANKFORT      CLEAR     63  43  48 E5        30.26S
6HR MIN TEMP:  63; 6HR MAX TEMP:  73;

$$

KYZ091>093-OHZ055-061-077-WVZ005-015-034-035-042-240100
...SOUTHERN OHIO/WEST VIRGINIA...

CITY           SKY/WX    TMP DP  RH WIND       PRES   REMARKS
COVINGTON      CLEAR     67  43  41 N6        30.28S
COLUMBUS       CLEAR     66  42  41 E3        30.30S
DAYTON         CLEAR     67  43  41 NE5       30.31S
WILMINGTON     CLEAR     61  43  51 NE6       30.30R
HUNTINGTON     CLEAR     61  48  62 E3        30.28S
CHARLESTON     CLEAR     59  53  80 CALM      30.29S
PINEVILLE*     PTCLDY    58  58  97 MISG      30.33S
BECKLEY        MOCLDY    58  49  72 E5        30.32S
BLUEFIELD      CLOUDY    58  51  78 E5        30.33R
$$

VAZ002-007-008-TNZ017-027-036-066-071-240100
...SOUTHWEST VIRGINIA/EAST TENNESSEE...

CITY           SKY/WX    TMP DP  RH WIND       PRES   REMARKS
WISE*          PTCLDY    59  50  72 NE6       30.31S
JONESVILLE*    PTCLDY    61  54  77 CALM      30.26F
ABINGDON*      MOCLDY    63  53  70 NE3       30.28S
BRISTOL        MOCLDY    66  51  58 E5        30.26R
KNOXVILLE      CLEAR     69  52  54 N5        30.20S
OAK RIDGE      CLEAR     68  53  58 CALM      30.23S
CROSSVILLE     CLEAR     65  48  54 NE3       30.25R
NASHVILLE      CLEAR     69  46  43 NE7       30.20S
$$

...KEY TO REMARKS...
VSB - VISIBILITY IN MILES
WCI - WIND CHILL INDEX
HX  - HEAT INDEX

$$


USA.gov is the U.S. government's official web portal to all federal, state and local government web resources and services.